Location: Chircca
(13.7944°S, 72.0608°W)
Time: 06:20:39
(UTC+00:00)

Centaur AC-102 - Pass Details

Date: 14 July 2020
Orbit: 862 x 41231 km, 16.4° (Epoch: 14 August)

Event Time Altitude Azimuth Distance (km) Brightness Sun altitude
Rises 09:52:15 0° 290° (WNW) 9,948 8.2 -19.2°
Reaches altitude 10° 10:02:05 10° 294° (WNW) 5,973 7.1 -16.9°
Maximum altitude 10:13:27 54° 10° (N) 1,344 4.4 -14.3°
Drops below altitude 10° 10:18:01 10° 88° (E) 2,497 6.9 -13.3°
Sets 10:20:04 0° 94° (E) 3,469 7.7 -12.8°
